Data No,UTC Date,UTC Time,Latitude,Longitude,Course(deg),Temp(degC),Sal(psu),Fluor Int,Blank
4544,2003/6/6,8:18:07, 25-06.313N,119-59.975E,232.2,25.086,34.2321,221,172
4545,2003/6/6,8:19:07, 25-06.192N,119-59.803E,232.6,25.11,34.2367,214,172
4546,2003/6/6,8:20:06, 25-06.069N,119-59.629E,231,25.121,34.262,220,172
4547,2003/6/6,8:21:06, 25-05.944N,119-59.453E,232.8,25.14,34.2646,216,172
4548,2003/6/6,8:22:06, 25-05.823N,119-59.279E,233.6,25.154,34.2732,216,172
4549,2003/6/6,8:23:07, 25-05.700N,119-59.106E,233.1,25.226,34.2874,218,172
4550,2003/6/6,8:24:06, 25-05.578N,119-58.930E,232.2,25.251,34.33,216,172
4551,2003/6/6,8:25:06, 25-05.455N,119-58.758E,231.3,25.295,34.3633,218,172
4552,2003/6/6,8:26:06, 25-05.331N,119-58.583E,231.5,25.317,34.4036,212,172
4553,2003/6/6,8:27:07, 25-05.208N,119-58.412E,231.8,25.285,34.4324,215,172
4554,2003/6/6,8:28:06, 25-05.085N,119-58.243E,230.7,25.246,34.4303,214,172
4556,2003/6/6,8:30:06, 25-04.841N,119-57.899E,231.4,25.212,34.4138,214,172
4557,2003/6/6,8:31:06, 25-04.720N,119-57.727E,232.4,25.198,34.3873,215,172
4558,2003/6/6,8:32:07, 25-04.597N,119-57.555E,232.5,25.181,34.3672,215,172
4559,2003/6/6,8:33:06, 25-04.481N,119-57.380E,237,25.155,34.3514,215,172
4560,2003/6/6,8:34:06, 25-04.370N,119-57.200E,235.4,25.145,34.3313,217,172
4561,2003/6/6,8:35:06, 25-04.256N,119-57.022E,235.7,25.125,34.3369,219,172
4562,2003/6/6,8:36:07, 25-04.145N,119-56.842E,237.2,25.114,34.3304,218,172
4563,2003/6/6,8:37:06, 25-04.029N,119-56.669E,228.2,25.098,34.3259,216,172
4564,2003/6/6,8:38:06, 25-03.884N,119-56.531E,216.9,25.073,34.3296,218,172
4565,2003/6/6,8:39:06, 25-03.729N,119-56.402E,218.1,25.045,34.3764,215,172
4566,2003/6/6,8:40:07, 25-03.568N,119-56.278E,214.1,25.032,34.3644,217,172
4567,2003/6/6,8:41:06, 25-03.409N,119-56.152E,215,25.069,34.358,217,172
4568,2003/6/6,8:42:06, 25-03.249N,119-56.028E,215.3,25.063,34.3491,216,172
4569,2003/6/6,8:43:06, 25-03.089N,119-55.900E,215.2,25.057,34.3024,216,172
4570,2003/6/6,8:44:06, 25-02.930N,119-55.774E,216.2,25.07,34.284,215,172
4571,2003/6/6,8:45:07, 25-02.768N,119-55.651E,215.2,25.088,34.301,219,172
4572,2003/6/6,8:46:06, 25-02.610N,119-55.525E,215.2,25.102,34.3087,216,172
4573,2003/6/6,8:47:06, 25-02.451N,119-55.397E,214.9,25.187,34.2826,219,172
4574,2003/6/6,8:48:06, 25-02.291N,119-55.271E,215.2,25.211,34.4131,214,172
4575,2003/6/6,8:49:07, 25-02.129N,119-55.147E,214.6,25.204,34.4673,217,172
4576,2003/6/6,8:50:06, 25-01.968N,119-55.020E,214,25.206,34.482,214,172
4577,2003/6/6,8:51:06, 25-01.818N,119-54.882E,228.7,25.207,34.4478,215,172
4578,2003/6/6,8:52:06, 25-01.695N,119-54.714E,229.9,25.205,34.4218,217,172
4579,2003/6/6,8:53:07, 25-01.571N,119-54.547E,229.3,25.208,34.3992,215,172
4580,2003/6/6,8:54:06, 25-01.447N,119-54.382E,230.2,25.202,34.4027,214,172
4581,2003/6/6,8:55:06, 25-01.321N,119-54.216E,230.6,25.202,34.4006,218,172
4582,2003/6/6,8:56:07, 25-01.193N,119-54.052E,229.4,25.195,34.3868,216,172
4583,2003/6/6,8:57:06, 25-01.068N,119-53.887E,232.1,25.192,34.3813,211,172
4584,2003/6/6,8:58:06, 25-00.945N,119-53.719E,230.7,25.196,34.3866,216,172
4586,2003/6/6,9:00:07, 25-00.698N,119-53.382E,231.2,25.186,34.3853,213,172
4587,2003/6/6,9:01:07, 25-00.576N,119-53.218E,231.4,25.182,34.3888,215,172
4588,2003/6/6,9:02:06, 25-00.453N,119-53.052E,231.9,25.176,34.3885,211,172
4589,2003/6/6,9:03:06, 25-00.325N,119-52.891E,231.6,25.191,34.3964,212,172
4590,2003/6/6,9:04:06, 25-00.209N,119-52.715E,231.7,25.189,34.4057,222,172
4591,2003/6/6,9:05:06, 25-00.086N,119-52.549E,229.8,25.182,34.4157,214,172
4592,2003/6/6,9:06:06, 24-59.963N,119-52.384E,229.4,25.177,34.4244,216,172
4593,2003/6/6,9:07:06, 24-59.838N,119-52.221E,230.5,25.175,34.4246,211,172
4594,2003/6/6,9:08:06, 24-59.716N,119-52.055E,230.1,25.178,34.4244,214,172
4595,2003/6/6,9:09:07, 24-59.592N,119-51.892E,230.9,25.182,34.4267,210,172
4596,2003/6/6,9:10:06, 24-59.470N,119-51.728E,230,25.191,34.429,212,172
4597,2003/6/6,9:11:06, 24-59.347N,119-51.560E,230.5,25.2,34.4284,214,172
4598,2003/6/6,9:12:07, 24-59.223N,119-51.392E,230.7,25.212,34.4311,213,172
4599,2003/6/6,9:13:07, 24-59.101N,119-51.229E,230.4,25.224,34.4378,213,172
4600,2003/6/6,9:14:07, 24-58.976N,119-51.065E,231,25.238,34.4443,213,172
4601,2003/6/6,9:15:06, 24-58.854N,119-50.898E,230.3,25.245,34.4499,213,172
4602,2003/6/6,9:16:07, 24-58.731N,119-50.732E,232.5,25.253,34.454,211,172
4603,2003/6/6,9:17:07, 24-58.609N,119-50.570E,230.9,25.261,34.4595,213,172
4604,2003/6/6,9:18:07, 24-58.487N,119-50.402E,231.8,25.272,34.4654,211,172
4605,2003/6/6,9:19:06, 24-58.363N,119-50.229E,233.2,25.281,34.4716,212,172
4606,2003/6/6,9:20:06, 24-58.240N,119-50.063E,229.9,25.29,34.4846,211,172
4607,2003/6/6,9:21:07, 24-58.116N,119-49.899E,230.8,25.295,34.4898,215,172
4608,2003/6/6,9:22:07, 24-57.995N,119-49.734E,231,25.292,34.4933,212,172
4609,2003/6/6,9:23:06, 24-57.871N,119-49.570E,231.8,25.29,34.4899,217,172
4610,2003/6/6,9:24:06, 24-57.747N,119-49.407E,229.7,25.296,34.4909,212,172
4611,2003/6/6,9:25:06, 24-57.624N,119-49.241E,230.1,25.308,34.4935,213,172
4612,2003/6/6,9:26:07, 24-57.497N,119-49.076E,229.7,25.32,34.5043,211,172
4613,2003/6/6,9:27:07, 24-57.375N,119-48.912E,232.1,25.315,34.516,214,172
4614,2003/6/6,9:28:06, 24-57.252N,119-48.748E,229.5,25.307,34.5236,211,172
4615,2003/6/6,9:29:06, 24-57.130N,119-48.585E,229.2,25.28,34.5251,212,172
4616,2003/6/6,9:30:07, 24-57.006N,119-48.423E,230.2,25.254,34.5224,215,172
4617,2003/6/6,9:31:07, 24-56.885N,119-48.258E,229.8,25.268,34.5185,218,172
4618,2003/6/6,9:32:06, 24-56.759N,119-48.098E,231,25.28,34.5176,217,172
4619,2003/6/6,9:33:06, 24-56.635N,119-47.933E,230.6,25.282,34.5189,216,172
4620,2003/6/6,9:34:07, 24-56.510N,119-47.773E,230.3,25.275,34.519,215,172
4621,2003/6/6,9:35:07, 24-56.388N,119-47.607E,228.8,25.265,34.5165,218,172
4622,2003/6/6,9:36:07, 24-56.261N,119-47.444E,231.7,25.256,34.5134,216,172
4623,2003/6/6,9:37:06, 24-56.139N,119-47.283E,230.1,25.249,34.5113,216,172
4624,2003/6/6,9:38:07, 24-56.016N,119-47.120E,228.9,25.242,34.5086,219,172
4625,2003/6/6,9:39:07, 24-55.892N,119-46.958E,229.9,25.227,34.5061,218,172
4626,2003/6/6,9:40:06, 24-55.770N,119-46.794E,231,25.217,34.5021,215,172
4627,2003/6/6,9:41:06, 24-55.646N,119-46.635E,231.9,25.215,34.4966,217,172
4628,2003/6/6,9:42:06, 24-55.521N,119-46.472E,228.4,25.213,34.4917,217,172
4629,2003/6/6,9:43:07, 24-55.398N,119-46.312E,230.2,25.216,34.489,215,172
4630,2003/6/6,9:44:07, 24-55.273N,119-46.153E,228.5,25.221,34.4885,216,172
4631,2003/6/6,9:45:06, 24-55.148N,119-45.990E,230.8,25.218,34.4905,212,172
4632,2003/6/6,9:46:06, 24-55.022N,119-45.830E,228,25.216,34.4891,215,172
4633,2003/6/6,9:47:07, 24-54.899N,119-45.666E,229.1,25.206,34.4877,216,172
4634,2003/6/6,9:48:07, 24-54.771N,119-45.507E,225.6,25.202,34.4861,216,172
4635,2003/6/6,9:49:07, 24-54.638N,119-45.351E,230.3,25.21,34.4836,214,172
4636,2003/6/6,9:50:06, 24-54.517N,119-45.194E,230.6,25.216,34.4845,213,172
4637,2003/6/6,9:51:07, 24-54.394N,119-45.031E,232.1,25.227,34.4868,216,172
4638,2003/6/6,9:52:07, 24-54.268N,119-44.864E,229.7,25.233,34.4896,214,172
4639,2003/6/6,9:53:06, 24-54.148N,119-44.706E,228.9,25.237,34.4924,217,172
4640,2003/6/6,9:54:07, 24-54.024N,119-44.543E,230.8,25.242,34.4944,215,172
4641,2003/6/6,9:55:07, 24-53.900N,119-44.383E,228,25.239,34.4956,214,172
4642,2003/6/6,9:56:07, 24-53.775N,119-44.216E,229.5,25.229,34.4956,217,172
4643,2003/6/6,9:57:07, 24-53.651N,119-44.055E,230.9,25.222,34.4927,217,172
4644,2003/6/6,9:58:06, 24-53.529N,119-43.897E,230,25.213,34.4897,216,172
4645,2003/6/6,9:59:07, 24-53.403N,119-43.735E,228.6,25.208,34.486,215,172
4646,2003/6/6,10:00:07, 24-53.279N,119-43.572E,230,25.204,34.4819,215,172
4647,2003/6/6,10:01:07, 24-53.157N,119-43.411E,227.7,25.199,34.4792,216,172
4648,2003/6/6,10:02:07, 24-53.030N,119-43.248E,231.3,25.192,34.4778,215,172
4649,2003/6/6,10:03:06, 24-52.907N,119-43.090E,229.6,25.192,34.4749,213,172
4650,2003/6/6,10:04:07, 24-52.784N,119-42.928E,229.5,25.184,34.4731,211,172
4651,2003/6/6,10:05:07, 24-52.662N,119-42.767E,232.9,25.182,34.4704,214,172
4652,2003/6/6,10:06:06, 24-52.546N,119-42.597E,232.7,25.18,34.467,209,172
4653,2003/6/6,10:07:07, 24-52.423N,119-42.434E,229.2,25.175,34.4653,214,172
4654,2003/6/6,10:08:07, 24-52.303N,119-42.271E,229.9,25.167,34.4631,216,172
4655,2003/6/6,10:09:07, 24-52.182N,119-42.108E,231.2,25.176,34.4609,215,172
4656,2003/6/6,10:10:07, 24-52.056N,119-41.945E,231.5,25.184,34.4601,215,172
4657,2003/6/6,10:11:06, 24-51.937N,119-41.783E,229.8,25.176,34.4619,213,172
4658,2003/6/6,10:12:07, 24-51.817N,119-41.617E,230.4,25.16,34.4609,212,172
4659,2003/6/6,10:13:07, 24-51.692N,119-41.452E,231.8,25.162,34.4563,215,172
4660,2003/6/6,10:14:07, 24-51.570N,119-41.287E,230.5,25.158,34.4538,218,172
4661,2003/6/6,10:15:06, 24-51.453N,119-41.124E,230.3,25.147,34.4509,215,172
4662,2003/6/6,10:16:07, 24-51.331N,119-40.961E,231.7,25.149,34.4492,214,172
4663,2003/6/6,10:17:07, 24-51.210N,119-40.798E,231.8,25.156,34.4459,213,172
4664,2003/6/6,10:18:07, 24-51.090N,119-40.634E,228.9,25.158,34.4452,214,172
4665,2003/6/6,10:19:06, 24-50.969N,119-40.467E,231.4,25.164,34.444,212,172
4666,2003/6/6,10:20:07, 24-50.848N,119-40.303E,231.4,25.176,34.4437,215,172
4667,2003/6/6,10:21:07, 24-50.727N,119-40.137E,232.1,25.179,34.4452,208,172
4668,2003/6/6,10:22:07, 24-50.604N,119-39.969E,230.4,25.179,34.4447,212,172
4669,2003/6/6,10:23:07, 24-50.484N,119-39.804E,230.6,25.191,34.4418,214,172
4670,2003/6/6,10:24:07, 24-50.364N,119-39.642E,232.2,25.206,34.4454,213,172
4671,2003/6/6,10:25:07, 24-50.241N,119-39.478E,231.1,25.22,34.4505,215,172
4672,2003/6/6,10:26:07, 24-50.121N,119-39.310E,230.8,25.234,34.4565,212,172
4673,2003/6/6,10:27:07, 24-49.996N,119-39.146E,231.2,25.251,34.4615,215,172
4674,2003/6/6,10:28:06, 24-49.873N,119-38.988E,230.6,25.272,34.4678,217,172
4675,2003/6/6,10:29:07, 24-49.748N,119-38.826E,228.7,25.289,34.4782,217,172
4676,2003/6/6,10:30:07, 24-49.625N,119-38.663E,231.2,25.299,34.4878,220,172
4677,2003/6/6,10:31:07, 24-49.498N,119-38.502E,229.3,25.308,34.4946,213,172
4678,2003/6/6,10:32:07, 24-49.376N,119-38.342E,230.8,25.313,34.5,218,172
4679,2003/6/6,10:33:07, 24-49.251N,119-38.183E,230.7,25.318,34.5037,218,172
4680,2003/6/6,10:34:07, 24-49.124N,119-38.020E,228.9,25.321,34.5047,218,172
4681,2003/6/6,10:35:07, 24-49.000N,119-37.860E,230.9,25.319,34.5054,223,172
4682,2003/6/6,10:36:07, 24-48.876N,119-37.700E,228.4,25.321,34.5055,220,172
4683,2003/6/6,10:37:07, 24-48.755N,119-37.538E,229,25.323,34.5054,219,172
4684,2003/6/6,10:38:07, 24-48.628N,119-37.378E,231.6,25.325,34.5048,222,172
4685,2003/6/6,10:39:07, 24-48.502N,119-37.220E,229.7,25.327,34.5058,221,172
4686,2003/6/6,10:40:07, 24-48.382N,119-37.055E,232.6,25.329,34.5057,217,172
4687,2003/6/6,10:41:07, 24-48.264N,119-36.893E,232.1,25.334,34.5063,221,172
4688,2003/6/6,10:42:07, 24-48.142N,119-36.730E,230.5,25.335,34.506,223,172
4689,2003/6/6,10:43:07, 24-48.019N,119-36.564E,230.7,25.33,34.5062,222,172
4690,2003/6/6,10:44:07, 24-47.899N,119-36.399E,230.3,25.329,34.5064,216,172
4691,2003/6/6,10:45:07, 24-47.777N,119-36.242E,230,25.33,34.5063,220,172
4692,2003/6/6,10:46:07, 24-47.657N,119-36.078E,230,25.331,34.5072,218,172
4693,2003/6/6,10:47:07, 24-47.532N,119-35.912E,231.9,25.336,34.5083,219,172
4694,2003/6/6,10:48:07, 24-47.410N,119-35.752E,230.4,25.336,34.509,218,172
4695,2003/6/6,10:49:07, 24-47.290N,119-35.585E,233.4,25.339,34.5096,220,172
4696,2003/6/6,10:50:07, 24-47.170N,119-35.426E,230.1,25.338,34.51,220,172
4697,2003/6/6,10:51:07, 24-47.049N,119-35.263E,229.9,25.339,34.5107,220,172
4698,2003/6/6,10:52:07, 24-46.926N,119-35.097E,231.7,25.342,34.5109,217,172
4699,2003/6/6,10:53:07, 24-46.808N,119-34.937E,230.2,25.344,34.51,219,172
4700,2003/6/6,10:54:07, 24-46.690N,119-34.768E,235.4,25.347,34.5098,219,172
4701,2003/6/6,10:55:07, 24-46.577N,119-34.594E,234.8,25.351,34.5099,217,172
4702,2003/6/6,10:56:07, 24-46.468N,119-34.426E,234.8,25.355,34.5096,216,172
4703,2003/6/6,10:57:07, 24-46.356N,119-34.253E,235.3,25.355,34.5097,217,172
4704,2003/6/6,10:58:07, 24-46.257N,119-34.074E,251.6,25.358,34.5096,218,172
4705,2003/6/6,10:59:07, 24-46.220N,119-33.866E,269.9,25.356,34.5085,217,172
4706,2003/6/6,11:00:07, 24-46.244N,119-33.660E,275.4,25.363,34.5069,224,172
4707,2003/6/6,11:01:07, 24-46.249N,119-33.451E,274.9,25.372,34.5076,223,172
4708,2003/6/6,11:02:07, 24-46.243N,119-33.244E,259.4,25.368,34.5078,219,172
4709,2003/6/6,11:03:07, 24-46.169N,119-33.064E,229,25.366,34.5073,217,172
4710,2003/6/6,11:04:07, 24-46.041N,119-32.921E,226.9,25.365,34.5074,213,172
4711,2003/6/6,11:05:07, 24-45.916N,119-32.767E,228.7,25.358,34.5066,215,172
4712,2003/6/6,11:06:07, 24-45.789N,119-32.611E,229.9,25.359,34.5056,222,172
4713,2003/6/6,11:07:07, 24-45.665N,119-32.457E,227.4,25.36,34.505,215,172
4714,2003/6/6,11:08:07, 24-45.536N,119-32.297E,230.2,25.36,34.5034,221,172
4715,2003/6/6,11:09:07, 24-45.407N,119-32.138E,227.9,25.367,34.5026,213,172
4716,2003/6/6,11:10:07, 24-45.281N,119-31.979E,230.2,25.368,34.504,218,172
4717,2003/6/6,11:11:07, 24-45.158N,119-31.822E,228.8,25.369,34.5039,217,172
4718,2003/6/6,11:12:07, 24-45.027N,119-31.666E,227.5,25.371,34.504,214,172
4719,2003/6/6,11:13:07, 24-44.896N,119-31.507E,228,25.37,34.504,214,172
4720,2003/6/6,11:14:07, 24-44.768N,119-31.348E,230,25.372,34.504,217,172
4721,2003/6/6,11:15:07, 24-44.642N,119-31.195E,226.8,25.373,34.5042,216,172
4722,2003/6/6,11:16:07, 24-44.511N,119-31.034E,228.4,25.372,34.5044,217,172
4723,2003/6/6,11:17:07, 24-44.381N,119-30.879E,228.4,25.37,34.5038,216,172
4724,2003/6/6,11:18:07, 24-44.253N,119-30.718E,229.4,25.371,34.5035,215,172
4725,2003/6/6,11:19:07, 24-44.123N,119-30.563E,229.8,25.372,34.5038,216,172
4726,2003/6/6,11:20:07, 24-43.996N,119-30.407E,227.4,25.37,34.5041,212,172
4727,2003/6/6,11:21:07, 24-43.865N,119-30.245E,229.1,25.369,34.5037,215,172
4728,2003/6/6,11:22:07, 24-43.738N,119-30.084E,228.8,25.366,34.5033,212,172
4729,2003/6/6,11:23:07, 24-43.609N,119-29.925E,226.5,25.358,34.5028,215,172
4730,2003/6/6,11:24:07, 24-43.480N,119-29.767E,227.2,25.349,34.5018,211,172
4731,2003/6/6,11:25:07, 24-43.348N,119-29.613E,228.1,25.353,34.502,214,172
4732,2003/6/6,11:26:07, 24-43.221N,119-29.452E,228.5,25.356,34.5022,212,172
4733,2003/6/6,11:27:07, 24-43.090N,119-29.296E,227.8,25.353,34.5027,214,172
4734,2003/6/6,11:28:07, 24-42.964N,119-29.140E,227,25.346,34.5033,212,172
4735,2003/6/6,11:29:07, 24-42.826N,119-28.984E,225.3,25.344,34.5028,212,172
4736,2003/6/6,11:30:07, 24-42.692N,119-28.832E,224.3,25.337,34.5032,214,172
4737,2003/6/6,11:31:07, 24-42.559N,119-28.678E,226.4,25.335,34.5037,214,172
4738,2003/6/6,11:32:07, 24-42.420N,119-28.530E,224.1,25.329,34.5036,209,172
4739,2003/6/6,11:33:07, 24-42.284N,119-28.378E,223.7,25.322,34.5037,211,172
4740,2003/6/6,11:34:07, 24-42.148N,119-28.226E,224.9,25.313,34.503,212,172
4741,2003/6/6,11:35:07, 24-42.008N,119-28.077E,224.5,25.308,34.5028,210,172
4742,2003/6/6,11:36:07, 24-41.873N,119-27.926E,224,25.306,34.502,210,172
4743,2003/6/6,11:37:07, 24-41.736N,119-27.778E,224.8,25.309,34.5011,210,172
4744,2003/6/6,11:38:07, 24-41.600N,119-27.625E,224.3,25.305,34.5013,213,172
4745,2003/6/6,11:39:07, 24-41.462N,119-27.476E,224.7,25.307,34.5013,209,172
4746,2003/6/6,11:40:07, 24-41.325N,119-27.323E,225.6,25.311,34.5006,211,172
4747,2003/6/6,11:41:07, 24-41.188N,119-27.172E,224.9,25.312,34.5008,209,172
4748,2003/6/6,11:42:07, 24-41.051N,119-27.020E,224.1,25.316,34.5011,210,172
4749,2003/6/6,11:43:07, 24-40.913N,119-26.870E,225.4,25.319,34.501,211,172
4750,2003/6/6,11:44:07, 24-40.777N,119-26.718E,225.6,25.321,34.5012,206,172
4751,2003/6/6,11:45:07, 24-40.640N,119-26.568E,225.6,25.322,34.5015,209,172
4752,2003/6/6,11:46:07, 24-40.502N,119-26.417E,224.2,25.328,34.5025,206,172
4753,2003/6/6,11:47:07, 24-40.363N,119-26.266E,225.8,25.324,34.504,206,172
4754,2003/6/6,11:48:07, 24-40.227N,119-26.112E,224.1,25.32,34.5053,209,172
4755,2003/6/6,11:49:07, 24-40.089N,119-25.960E,225.5,25.316,34.5051,207,172
4756,2003/6/6,11:50:07, 24-39.954N,119-25.808E,224.2,25.309,34.5058,204,172
4757,2003/6/6,11:51:07, 24-39.815N,119-25.656E,225.6,25.303,34.5059,206,172
4758,2003/6/6,11:52:07, 24-39.679N,119-25.503E,226.7,25.297,34.5057,205,172
4759,2003/6/6,11:53:07, 24-39.539N,119-25.354E,226.1,25.297,34.5059,211,172
4760,2003/6/6,11:54:07, 24-39.404N,119-25.198E,225.7,25.297,34.5054,203,172
4761,2003/6/6,11:55:07, 24-39.265N,119-25.047E,224,25.301,34.5052,211,172
4762,2003/6/6,11:56:07, 24-39.130N,119-24.894E,225.9,25.302,34.5052,210,172
4763,2003/6/6,11:57:07, 24-38.993N,119-24.742E,224.9,25.304,34.5055,208,172
4764,2003/6/6,11:58:07, 24-38.857N,119-24.586E,227.4,25.307,34.5059,205,172
4765,2003/6/6,11:59:07, 24-38.718N,119-24.437E,228.4,25.308,34.5075,205,172
4766,2003/6/6,12:00:07, 24-38.581N,119-24.284E,226.6,25.305,34.5075,202,172
4767,2003/6/6,12:01:07, 24-38.446N,119-24.128E,226.7,25.303,34.5074,203,172
4768,2003/6/6,12:02:07, 24-38.310N,119-23.975E,224.8,25.305,34.507,203,172
4769,2003/6/6,12:03:07, 24-38.173N,119-23.823E,226.5,25.303,34.5057,204,172
4770,2003/6/6,12:04:07, 24-38.036N,119-23.670E,224.8,25.3,34.5044,205,172
4771,2003/6/6,12:05:07, 24-37.898N,119-23.521E,224.1,25.298,34.5039,204,172
4772,2003/6/6,12:06:07, 24-37.761N,119-23.368E,223.5,25.294,34.5024,204,172
4773,2003/6/6,12:07:07, 24-37.625N,119-23.215E,227.4,25.285,34.5019,207,172
4774,2003/6/6,12:08:07, 24-37.488N,119-23.065E,226.1,25.288,34.5003,204,172
4775,2003/6/6,12:09:07, 24-37.356N,119-22.907E,229.2,25.297,34.4998,204,172
4776,2003/6/6,12:10:07, 24-37.223N,119-22.750E,227.3,25.299,34.4998,205,172
4777,2003/6/6,12:11:07, 24-37.094N,119-22.589E,227.2,25.297,34.4992,204,172
4778,2003/6/6,12:12:07, 24-36.963N,119-22.431E,228.1,25.3,34.499,205,172
4779,2003/6/6,12:13:07, 24-36.832N,119-22.274E,228.3,25.298,34.4985,205,172
4780,2003/6/6,12:14:07, 24-36.708N,119-22.109E,227,25.298,34.4979,204,172
4781,2003/6/6,12:15:07, 24-36.584N,119-21.944E,232.3,25.307,34.4973,203,172
4782,2003/6/6,12:16:07, 24-36.457N,119-21.782E,230.7,25.31,34.4967,203,172
4783,2003/6/6,12:17:07, 24-36.333N,119-21.617E,230.9,25.309,34.4966,201,172
4784,2003/6/6,12:18:07, 24-36.207N,119-21.451E,231.2,25.311,34.496,204,172
4785,2003/6/6,12:19:07, 24-36.080N,119-21.287E,229.2,25.314,34.4957,203,172
4786,2003/6/6,12:20:07, 24-35.956N,119-21.119E,228.8,25.312,34.4956,200,172
4787,2003/6/6,12:21:07, 24-35.831N,119-20.953E,230.6,25.312,34.4951,203,172
4788,2003/6/6,12:22:07, 24-35.705N,119-20.789E,231,25.316,34.4948,201,172
4789,2003/6/6,12:23:07, 24-35.580N,119-20.625E,230.6,25.324,34.4945,201,172
4790,2003/6/6,12:24:07, 24-35.454N,119-20.459E,231,25.329,34.4948,206,172
4791,2003/6/6,12:25:07, 24-35.329N,119-20.293E,231.5,25.335,34.4942,198,172
4792,2003/6/6,12:26:07, 24-35.204N,119-20.126E,232.5,25.339,34.4949,200,172
4793,2003/6/6,12:27:07, 24-35.078N,119-19.963E,229,25.346,34.4948,204,172
4794,2003/6/6,12:28:07, 24-34.953N,119-19.796E,231.1,25.346,34.4951,204,172
4795,2003/6/6,12:29:07, 24-34.827N,119-19.631E,231.3,25.348,34.4953,202,172
4796,2003/6/6,12:30:07, 24-34.703N,119-19.465E,228.8,25.35,34.4953,199,172
4797,2003/6/6,12:31:07, 24-34.578N,119-19.297E,230.3,25.351,34.4957,201,172
4798,2003/6/6,12:32:07, 24-34.453N,119-19.131E,231.2,25.348,34.4963,198,172
4799,2003/6/6,12:33:07, 24-34.328N,119-18.964E,230.7,25.346,34.497,199,172
4800,2003/6/6,12:34:07, 24-34.202N,119-18.799E,230.3,25.34,34.4967,202,172
4801,2003/6/6,12:35:07, 24-34.077N,119-18.633E,232.2,25.329,34.4965,200,172
4802,2003/6/6,12:36:07, 24-33.951N,119-18.468E,228.9,25.316,34.4959,202,172
4803,2003/6/6,12:37:07, 24-33.827N,119-18.302E,230.5,25.316,34.4954,200,172
4804,2003/6/6,12:38:07, 24-33.702N,119-18.136E,230.9,25.312,34.4954,202,172
4805,2003/6/6,12:39:07, 24-33.579N,119-17.971E,230.3,25.316,34.4955,200,172
4806,2003/6/6,12:40:07, 24-33.453N,119-17.807E,230.6,25.319,34.4955,202,172
4807,2003/6/6,12:41:07, 24-33.329N,119-17.640E,230.6,25.321,34.4957,199,172
4808,2003/6/6,12:42:07, 24-33.202N,119-17.476E,230.3,25.326,34.4963,202,172
4809,2003/6/6,12:43:07, 24-33.078N,119-17.310E,231.6,25.329,34.4965,203,172
4810,2003/6/6,12:44:07, 24-32.955N,119-17.144E,230.6,25.329,34.4969,201,172
4811,2003/6/6,12:45:07, 24-32.829N,119-16.982E,233.1,25.329,34.4967,198,172
4812,2003/6/6,12:46:07, 24-32.704N,119-16.816E,230.2,25.335,34.4972,201,172
4813,2003/6/6,12:47:07, 24-32.582N,119-16.649E,230.7,25.343,34.4977,201,172
4814,2003/6/6,12:48:07, 24-32.455N,119-16.484E,232.8,25.349,34.4982,202,172
4815,2003/6/6,12:49:07, 24-32.331N,119-16.319E,228.4,25.352,34.4989,201,172
4816,2003/6/6,12:50:07, 24-32.207N,119-16.154E,231.1,25.348,34.4983,199,172
4817,2003/6/6,12:51:07, 24-32.085N,119-15.989E,231.8,25.345,34.4999,198,172
4818,2003/6/6,12:52:07, 24-31.960N,119-15.822E,228.1,25.341,34.4995,201,172
4819,2003/6/6,12:53:07, 24-31.833N,119-15.658E,227.1,25.337,34.4997,201,172
4820,2003/6/6,12:54:07, 24-31.697N,119-15.504E,225.5,25.344,34.5003,201,172
4821,2003/6/6,12:55:07, 24-31.560N,119-15.350E,225.8,25.337,34.5015,199,172
4822,2003/6/6,12:56:07, 24-31.425N,119-15.195E,225.7,25.332,34.5012,199,172
4823,2003/6/6,12:57:07, 24-31.285N,119-15.047E,225.4,25.332,34.5013,200,172
4824,2003/6/6,12:58:07, 24-31.148N,119-14.893E,225.6,25.337,34.5014,201,172
4825,2003/6/6,12:59:07, 24-31.014N,119-14.739E,226,25.337,34.5009,201,172
4826,2003/6/6,13:00:07, 24-30.878N,119-14.586E,227.8,25.343,34.5011,200,172
4827,2003/6/6,13:01:07, 24-30.740N,119-14.435E,225.8,25.338,34.5007,201,172
4828,2003/6/6,13:02:07, 24-30.603N,119-14.282E,227.2,25.341,34.5001,202,172
4829,2003/6/6,13:03:07, 24-30.468N,119-14.128E,224.9,25.336,34.5,202,172
4830,2003/6/6,13:04:07, 24-30.339N,119-13.966E,232.5,25.334,34.4997,201,172
4831,2003/6/6,13:05:07, 24-30.216N,119-13.798E,231,25.333,34.4993,201,172
4832,2003/6/6,13:06:07, 24-30.094N,119-13.630E,229.5,25.333,34.4993,203,172
4833,2003/6/6,13:07:07, 24-29.970N,119-13.465E,231.4,25.343,34.4988,201,172
4834,2003/6/6,13:08:07, 24-29.846N,119-13.300E,230.2,25.354,34.4996,199,172
4835,2003/6/6,13:09:07, 24-29.723N,119-13.134E,232.5,25.243,34.5001,200,172
4836,2003/6/6,13:10:07, 24-29.598N,119-12.970E,230.4,25.362,34.4998,199,172
4837,2003/6/6,13:11:07, 24-29.476N,119-12.803E,229,25.359,34.5,202,172
4838,2003/6/6,13:12:07, 24-29.355N,119-12.636E,232.5,25.357,34.5003,203,172
4839,2003/6/6,13:13:07, 24-29.230N,119-12.473E,227.2,25.354,34.5,200,172
4840,2003/6/6,13:14:07, 24-29.108N,119-12.305E,232.5,25.351,34.5,202,172
4841,2003/6/6,13:15:07, 24-28.988N,119-12.140E,231.5,25.344,34.4996,202,172
4842,2003/6/6,13:16:07, 24-28.865N,119-11.974E,230.9,25.337,34.499,203,172
4843,2003/6/6,13:17:07, 24-28.743N,119-11.810E,230.9,25.334,34.4996,203,172
4844,2003/6/6,13:18:07, 24-28.619N,119-11.645E,229.4,25.333,34.4993,203,172
4845,2003/6/6,13:19:07, 24-28.495N,119-11.485E,231,25.329,34.4988,204,172
4846,2003/6/6,13:20:07, 24-28.373N,119-11.309E,230.9,25.323,34.4987,204,172
4847,2003/6/6,13:21:07, 24-28.249N,119-11.144E,231.1,25.323,34.4988,205,172
4848,2003/6/6,13:22:07, 24-28.129N,119-10.976E,232.5,25.324,34.498,203,172
4849,2003/6/6,13:23:07, 24-28.006N,119-10.812E,231.3,25.326,34.4987,205,172
4850,2003/6/6,13:24:07, 24-27.886N,119-10.645E,231.6,25.315,34.4986,204,172
4851,2003/6/6,13:25:07, 24-27.764N,119-10.478E,231.1,25.323,34.4985,206,172
4852,2003/6/6,13:26:07, 24-27.642N,119-10.305E,233.5,25.325,34.4987,210,172
4853,2003/6/6,13:27:07, 24-27.520N,119-10.139E,232.2,25.326,34.4985,206,172
4854,2003/6/6,13:28:07, 24-27.399N,119-09.973E,230.5,25.332,34.4992,210,172
4855,2003/6/6,13:29:07, 24-27.279N,119-09.808E,232.4,25.337,34.4994,208,172
4856,2003/6/6,13:30:07, 24-27.155N,119-09.641E,232.3,25.344,34.4994,206,172
4857,2003/6/6,13:31:07, 24-27.035N,119-09.471E,232.5,25.346,34.5,205,172
4858,2003/6/6,13:32:07, 24-26.914N,119-09.306E,230.4,25.351,34.5,211,172